PWSweather.com
Personal Weather Stations
Station Observations
NAGEO265NE
Bedzin GrodziecPL 42-506

Bedzin GrodziecPL 42-506

Lat: 50.347, Lon: 19.079

Elevation: 948

Station Type: WH1080

http://www.meteo-grodziec.pl/

High Low Average
Temperature 43.2°F6.2°C 39.0°F3.9°C 41.0°F5.0°C
Dew Point 41.7°F5.4°C 37.6°F3.1°C 39.6°F4.2°C
Winds 2.0 mph 3.2 kmh Calm Calm Calm WSWCalm WSW
Wind Gusts 7.0 mph11.3 kmh -- 2.0 mph3.2 kmh
Humidity 97% 93% 95%
Pressure 30.57 in1035.2 mb 30.49 in1032.5 mb -
Precipitation 0.02 in0.5 mm - -
Hour Temp Dew Point Humidity Winds Wind Gusts Pressure Precip Precip Rate Daily Precip Total
12:00 AM 40.3°F4.6°C 38.3°F3.5°C 93% Calm Calm 3.0 mph4.8 kmh 30.50 in1032.8 mb 0.00 in0.0 mm 0.00 in0.0 mm 0.00 in0.0 mm
12:05 AM 40.3°F4.6°C 38.3°F3.5°C 93% Calm Calm 3.0 mph4.8 kmh 30.50 in1032.8 mb 0.00 in0.0 mm 0.00 in0.0 mm 0.00 in0.0 mm
12:10 AM 40.3°F4.6°C 38.3°F3.5°C 93% Calm Calm 3.0 mph4.8 kmh 30.50 in1032.8 mb 0.00 in0.0 mm 0.00 in0.0 mm 0.00 in0.0 mm
12:15 AM 40.1°F4.5°C 38.3°F3.5°C 93% Calm Calm 4.0 mph6.4 kmh 30.50 in1032.8 mb 0.00 in0.0 mm 0.00 in0.0 mm 0.00 in0.0 mm
12:20 AM 40.1°F4.5°C 38.3°F3.5°C 93% Calm Calm 4.0 mph6.4 kmh 30.50 in1032.8 mb 0.00 in0.0 mm 0.00 in0.0 mm 0.00 in0.0 mm
12:25 AM 40.1°F4.5°C 38.3°F3.5°C 93% Calm Calm 4.0 mph6.4 kmh 30.50 in1032.8 mb 0.00 in0.0 mm 0.00 in0.0 mm 0.00 in0.0 mm
12:30 AM 39.9°F4.4°C 38.1°F3.4°C 93% Calm Calm 4.0 mph6.4 kmh 30.50 in1032.8 mb 0.00 in0.0 mm 0.00 in0.0 mm 0.00 in0.0 mm
12:35 AM 39.9°F4.4°C 38.1°F3.4°C 93% 1.0 mph WSW1.6 kmh WSW 5.0 mph8.0 kmh 30.50 in1032.8 mb 0.00 in0.0 mm 0.00 in0.0 mm 0.00 in0.0 mm
12:40 AM 39.9°F4.4°C 38.1°F3.4°C 93% 1.0 mph SW1.6 kmh SW 5.0 mph8.0 kmh 30.50 in1032.8 mb 0.00 in0.0 mm 0.00 in0.0 mm 0.00 in0.0 mm
12:45 AM 39.9°F4.4°C 38.1°F3.4°C 93% 1.0 mph SW1.6 kmh SW 6.0 mph9.7 kmh 30.50 in1032.8 mb 0.00 in0.0 mm 0.00 in0.0 mm 0.00 in0.0 mm
12:50 AM 39.9°F4.4°C 38.1°F3.4°C 93% 2.0 mph SW3.2 kmh SW 7.0 mph11.3 kmh 30.49 in1032.5 mb 0.00 in0.0 mm 0.00 in0.0 mm 0.00 in0.0 mm
12:55 AM 39.7°F4.3°C 37.9°F3.3°C 93% 2.0 mph SW3.2 kmh SW 7.0 mph11.3 kmh 30.50 in1032.8 mb 0.00 in0.0 mm 0.00 in0.0 mm 0.00 in0.0 mm
01:00 AM 39.7°F4.3°C 37.9°F3.3°C 93% 1.0 mph SW1.6 kmh SW 4.0 mph6.4 kmh 30.50 in1032.8 mb 0.00 in0.0 mm 0.00 in0.0 mm 0.00 in0.0 mm
01:05 AM 39.7°F4.3°C 38.3°F3.5°C 94% 1.0 mph WSW1.6 kmh WSW 3.0 mph4.8 kmh 30.50 in1032.8 mb 0.00 in0.0 mm 0.00 in0.0 mm 0.00 in0.0 mm
01:10 AM 39.9°F4.4°C 38.5°F3.6°C 94% 1.0 mph W1.6 kmh W 5.0 mph8.0 kmh 30.50 in1032.8 mb 0.00 in0.0 mm 0.00 in0.0 mm 0.00 in0.0 mm
01:15 AM 40.1°F4.5°C 38.5°F3.6°C 94% 1.0 mph W1.6 kmh W 5.0 mph8.0 kmh 30.50 in1032.8 mb 0.00 in0.0 mm 0.00 in0.0 mm 0.00 in0.0 mm
01:20 AM 40.1°F4.5°C 38.5°F3.6°C 94% 1.0 mph WSW1.6 kmh WSW 4.0 mph6.4 kmh 30.50 in1032.8 mb 0.00 in0.0 mm 0.00 in0.0 mm 0.00 in0.0 mm
01:25 AM 40.3°F4.6°C 38.7°F3.7°C 94% 1.0 mph WSW1.6 kmh WSW 4.0 mph6.4 kmh 30.50 in1032.8 mb 0.00 in0.0 mm 0.00 in0.0 mm 0.00 in0.0 mm
01:30 AM 40.3°F4.6°C 38.7°F3.7°C 94% 1.0 mph WSW1.6 kmh WSW 6.0 mph9.7 kmh 30.50 in1032.8 mb 0.00 in0.0 mm 0.00 in0.0 mm 0.00 in0.0 mm
01:35 AM 40.3°F4.6°C 38.7°F3.7°C 94% 1.0 mph WSW1.6 kmh WSW 6.0 mph9.7 kmh 30.50 in1032.8 mb 0.00 in0.0 mm 0.00 in0.0 mm 0.00 in0.0 mm
01:40 AM 40.3°F4.6°C 38.7°F3.7°C 94% 1.0 mph WSW1.6 kmh WSW 5.0 mph8.0 kmh 30.50 in1032.8 mb 0.00 in0.0 mm 0.00 in0.0 mm 0.00 in0.0 mm
01:45 AM 40.3°F4.6°C 38.7°F3.7°C 94% Calm Calm 3.0 mph4.8 kmh 30.50 in1032.8 mb 0.00 in0.0 mm 0.00 in0.0 mm 0.00 in0.0 mm
01:50 AM 40.1°F4.5°C 38.5°F3.6°C 94% Calm Calm 2.0 mph3.2 kmh 30.51 in1033.2 mb 0.00 in0.0 mm 0.00 in0.0 mm 0.00 in0.0 mm
01:55 AM 40.1°F4.5°C 38.5°F3.6°C 94% Calm Calm 3.0 mph4.8 kmh 30.50 in1032.8 mb 0.00 in0.0 mm 0.00 in0.0 mm 0.00 in0.0 mm
02:00 AM 39.9°F4.4°C 38.5°F3.6°C 94% Calm Calm 3.0 mph4.8 kmh 30.51 in1033.2 mb 0.00 in0.0 mm 0.00 in0.0 mm 0.00 in0.0 mm
02:05 AM 39.9°F4.4°C 38.5°F3.6°C 94% Calm Calm 3.0 mph4.8 kmh 30.50 in1032.8 mb 0.00 in0.0 mm 0.00 in0.0 mm 0.00 in0.0 mm
02:10 AM 39.9°F4.4°C 38.5°F3.6°C 94% Calm Calm 3.0 mph4.8 kmh 30.50 in1032.8 mb 0.00 in0.0 mm 0.00 in0.0 mm 0.00 in0.0 mm
02:15 AM 39.9°F4.4°C 38.3°F3.5°C 94% Calm Calm 3.0 mph4.8 kmh 30.51 in1033.2 mb 0.00 in0.0 mm 0.00 in0.0 mm 0.00 in0.0 mm
02:20 AM 39.9°F4.4°C 38.3°F3.5°C 94% Calm Calm 4.0 mph6.4 kmh 30.50 in1032.8 mb 0.00 in0.0 mm 0.00 in0.0 mm 0.00 in0.0 mm
02:25 AM 39.9°F4.4°C 38.5°F3.6°C 94% Calm Calm 4.0 mph6.4 kmh 30.50 in1032.8 mb 0.00 in0.0 mm 0.00 in0.0 mm 0.00 in0.0 mm
02:30 AM 39.9°F4.4°C 38.5°F3.6°C 94% Calm Calm 3.0 mph4.8 kmh 30.50 in1032.8 mb 0.00 in0.0 mm 0.00 in0.0 mm 0.00 in0.0 mm
02:35 AM 39.9°F4.4°C 38.5°F3.6°C 94% Calm Calm 5.0 mph8.0 kmh 30.51 in1033.2 mb 0.00 in0.0 mm 0.00 in0.0 mm 0.00 in0.0 mm
02:40 AM 39.9°F4.4°C 38.5°F3.6°C 94% Calm Calm 5.0 mph8.0 kmh 30.51 in1033.2 mb 0.00 in0.0 mm 0.00 in0.0 mm 0.00 in0.0 mm
02:45 AM 39.9°F4.4°C 38.3°F3.5°C 94% Calm Calm 4.0 mph6.4 kmh 30.51 in1033.2 mb 0.00 in0.0 mm 0.00 in0.0 mm 0.00 in0.0 mm
02:50 AM 39.9°F4.4°C 38.3°F3.5°C 94% Calm Calm 2.0 mph3.2 kmh 30.51 in1033.2 mb 0.00 in0.0 mm 0.00 in0.0 mm 0.00 in0.0 mm
02:55 AM 39.9°F4.4°C 38.3°F3.5°C 94% Calm Calm 2.0 mph3.2 kmh 30.51 in1033.2 mb 0.00 in0.0 mm 0.00 in0.0 mm 0.00 in0.0 mm
03:00 AM 39.9°F4.4°C 38.3°F3.5°C 94% Calm Calm 2.0 mph3.2 kmh 30.51 in1033.2 mb 0.00 in0.0 mm 0.00 in0.0 mm 0.00 in0.0 mm
03:05 AM 39.9°F4.4°C 38.3°F3.5°C 94% Calm Calm 3.0 mph4.8 kmh 30.50 in1032.8 mb 0.00 in0.0 mm 0.00 in0.0 mm 0.00 in0.0 mm
03:10 AM 39.7°F4.3°C 38.3°F3.5°C 94% Calm Calm 4.0 mph6.4 kmh 30.51 in1033.2 mb 0.00 in0.0 mm 0.00 in0.0 mm 0.00 in0.0 mm
03:15 AM 39.7°F4.3°C 38.3°F3.5°C 94% Calm Calm 4.0 mph6.4 kmh 30.51 in1033.2 mb 0.00 in0.0 mm 0.00 in0.0 mm 0.00 in0.0 mm
03:20 AM 39.7°F4.3°C 38.1°F3.4°C 94% Calm Calm 4.0 mph6.4 kmh 30.51 in1033.2 mb 0.00 in0.0 mm 0.00 in0.0 mm 0.00 in0.0 mm
03:25 AM 39.7°F4.3°C 38.1°F3.4°C 94% Calm Calm 4.0 mph6.4 kmh 30.51 in1033.2 mb 0.00 in0.0 mm 0.00 in0.0 mm 0.00 in0.0 mm
03:30 AM 39.7°F4.3°C 38.1°F3.4°C 94% Calm Calm 3.0 mph4.8 kmh 30.51 in1033.2 mb 0.00 in0.0 mm 0.00 in0.0 mm 0.00 in0.0 mm
03:35 AM 39.7°F4.3°C 38.1°F3.4°C 94% Calm Calm 3.0 mph4.8 kmh 30.51 in1033.2 mb 0.00 in0.0 mm 0.00 in0.0 mm 0.00 in0.0 mm
03:40 AM 39.7°F4.3°C 38.1°F3.4°C 94% Calm Calm 3.0 mph4.8 kmh 30.51 in1033.2 mb 0.00 in0.0 mm 0.00 in0.0 mm 0.00 in0.0 mm
03:45 AM 39.7°F4.3°C 38.1°F3.4°C 94% Calm Calm 3.0 mph4.8 kmh 30.51 in1033.2 mb 0.00 in0.0 mm 0.00 in0.0 mm 0.00 in0.0 mm
03:50 AM 39.7°F4.3°C 38.1°F3.4°C 94% Calm Calm 3.0 mph4.8 kmh 30.51 in1033.2 mb 0.00 in0.0 mm 0.00 in0.0 mm 0.00 in0.0 mm
03:55 AM 39.7°F4.3°C 38.1°F3.4°C 94% Calm Calm 3.0 mph4.8 kmh 30.51 in1033.2 mb 0.00 in0.0 mm 0.00 in0.0 mm 0.00 in0.0 mm
04:00 AM 39.6°F4.2°C 37.9°F3.3°C 94% Calm Calm 4.0 mph6.4 kmh 30.52 in1033.5 mb 0.00 in0.0 mm 0.00 in0.0 mm 0.00 in0.0 mm
04:05 AM 39.6°F4.2°C 37.9°F3.3°C 94% Calm Calm 4.0 mph6.4 kmh 30.51 in1033.2 mb 0.00 in0.0 mm 0.00 in0.0 mm 0.00 in0.0 mm
04:10 AM 39.6°F4.2°C 37.9°F3.3°C 94% Calm Calm 2.0 mph3.2 kmh 30.51 in1033.2 mb 0.00 in0.0 mm 0.00 in0.0 mm 0.00 in0.0 mm
04:15 AM 39.4°F4.1°C 37.8°F3.2°C 94% Calm Calm 2.0 mph3.2 kmh 30.51 in1033.2 mb 0.00 in0.0 mm 0.00 in0.0 mm 0.00 in0.0 mm
04:20 AM 39.4°F4.1°C 37.8°F3.2°C 94% Calm Calm 2.0 mph3.2 kmh 30.51 in1033.2 mb 0.00 in0.0 mm 0.00 in0.0 mm 0.00 in0.0 mm
04:25 AM 39.4°F4.1°C 37.8°F3.2°C 94% Calm Calm 2.0 mph3.2 kmh 30.51 in1033.2 mb 0.00 in0.0 mm 0.00 in0.0 mm 0.00 in0.0 mm
04:30 AM 39.4°F4.1°C 37.8°F3.2°C 94% Calm Calm 2.0 mph3.2 kmh 30.51 in1033.2 mb 0.00 in0.0 mm 0.00 in0.0 mm 0.00 in0.0 mm
04:35 AM 39.4°F4.1°C 37.8°F3.2°C 94% Calm Calm 3.0 mph4.8 kmh 30.51 in1033.2 mb 0.00 in0.0 mm 0.00 in0.0 mm 0.00 in0.0 mm
04:40 AM 39.4°F4.1°C 37.8°F3.2°C 94% 1.0 mph WSW1.6 kmh WSW 3.0 mph4.8 kmh 30.51 in1033.2 mb 0.00 in0.0 mm 0.00 in0.0 mm 0.00 in0.0 mm
04:45 AM 39.4°F4.1°C 37.8°F3.2°C 94% Calm Calm 3.0 mph4.8 kmh 30.51 in1033.2 mb 0.00 in0.0 mm 0.00 in0.0 mm 0.00 in0.0 mm
04:50 AM 39.2°F4.0°C 37.6°F3.1°C 94% Calm Calm 2.0 mph3.2 kmh 30.51 in1033.2 mb 0.00 in0.0 mm 0.00 in0.0 mm 0.00 in0.0 mm
04:55 AM 39.0°F3.9°C 37.8°F3.2°C 95% Calm Calm 3.0 mph4.8 kmh 30.52 in1033.5 mb 0.00 in0.0 mm 0.00 in0.0 mm 0.00 in0.0 mm
05:00 AM 39.0°F3.9°C 37.8°F3.2°C 95% Calm Calm 3.0 mph4.8 kmh 30.52 in1033.5 mb 0.00 in0.0 mm 0.00 in0.0 mm 0.00 in0.0 mm
05:05 AM 39.0°F3.9°C 37.8°F3.2°C 95% Calm Calm 2.0 mph3.2 kmh 30.52 in1033.5 mb 0.00 in0.0 mm 0.00 in0.0 mm 0.00 in0.0 mm
05:10 AM 39.0°F3.9°C 37.8°F3.2°C 95% Calm Calm 3.0 mph4.8 kmh 30.52 in1033.5 mb 0.00 in0.0 mm 0.00 in0.0 mm 0.00 in0.0 mm
05:15 AM 39.2°F4.0°C 37.9°F3.3°C 95% Calm Calm 3.0 mph4.8 kmh 30.52 in1033.5 mb 0.00 in0.0 mm 0.00 in0.0 mm 0.00 in0.0 mm
05:20 AM 39.2°F4.0°C 37.9°F3.3°C 95% Calm Calm 1.0 mph1.6 kmh 30.52 in1033.5 mb 0.00 in0.0 mm 0.00 in0.0 mm 0.00 in0.0 mm
05:25 AM 39.2°F4.0°C 37.9°F3.3°C 95% Calm Calm 1.0 mph1.6 kmh 30.52 in1033.5 mb 0.00 in0.0 mm 0.00 in0.0 mm 0.00 in0.0 mm
05:30 AM 39.2°F4.0°C 37.9°F3.3°C 95% Calm Calm 1.0 mph1.6 kmh 30.51 in1033.2 mb 0.00 in0.0 mm 0.00 in0.0 mm 0.00 in0.0 mm
05:35 AM 39.2°F4.0°C 37.9°F3.3°C 95% Calm Calm 1.0 mph1.6 kmh 30.51 in1033.2 mb 0.00 in0.0 mm 0.00 in0.0 mm 0.00 in0.0 mm
05:40 AM 39.2°F4.0°C 37.9°F3.3°C 95% Calm Calm 1.0 mph1.6 kmh 30.51 in1033.2 mb 0.00 in0.0 mm 0.00 in0.0 mm 0.00 in0.0 mm
05:45 AM 39.2°F4.0°C 37.9°F3.3°C 95% Calm Calm 1.0 mph1.6 kmh 30.51 in1033.2 mb 0.00 in0.0 mm 0.00 in0.0 mm 0.00 in0.0 mm
05:50 AM 39.0°F3.9°C 37.8°F3.2°C 95% Calm Calm 1.0 mph1.6 kmh 30.51 in1033.2 mb 0.00 in0.0 mm 0.00 in0.0 mm 0.00 in0.0 mm
05:55 AM 39.0°F3.9°C 37.8°F3.2°C 95% Calm Calm 1.0 mph1.6 kmh 30.51 in1033.2 mb 0.00 in0.0 mm 0.00 in0.0 mm 0.00 in0.0 mm
06:00 AM 39.0°F3.9°C 37.8°F3.2°C 95% Calm Calm 1.0 mph1.6 kmh 30.51 in1033.2 mb 0.00 in0.0 mm 0.00 in0.0 mm 0.00 in0.0 mm
06:05 AM 39.0°F3.9°C 37.8°F3.2°C 95% Calm Calm 2.0 mph3.2 kmh 30.51 in1033.2 mb 0.00 in0.0 mm 0.00 in0.0 mm 0.00 in0.0 mm
06:10 AM 39.0°F3.9°C 37.8°F3.2°C 95% Calm Calm 2.0 mph3.2 kmh 30.52 in1033.5 mb 0.00 in0.0 mm 0.00 in0.0 mm 0.00 in0.0 mm
06:15 AM 39.2°F4.0°C 37.9°F3.3°C 95% Calm Calm 1.0 mph1.6 kmh 30.52 in1033.5 mb 0.00 in0.0 mm 0.00 in0.0 mm 0.00 in0.0 mm
06:20 AM 39.0°F3.9°C 37.8°F3.2°C 95% Calm Calm 1.0 mph1.6 kmh 30.52 in1033.5 mb 0.00 in0.0 mm 0.00 in0.0 mm 0.00 in0.0 mm
06:25 AM 39.2°F4.0°C 37.9°F3.3°C 95% Calm Calm -- 30.52 in1033.5 mb 0.00 in0.0 mm 0.00 in0.0 mm 0.00 in0.0 mm
06:30 AM 39.2°F4.0°C 37.9°F3.3°C 95% Calm Calm -- 30.52 in1033.5 mb 0.00 in0.0 mm 0.00 in0.0 mm 0.00 in0.0 mm
06:35 AM 39.2°F4.0°C 37.9°F3.3°C 95% Calm Calm 1.0 mph1.6 kmh 30.52 in1033.5 mb 0.00 in0.0 mm 0.00 in0.0 mm 0.00 in0.0 mm
06:40 AM 39.2°F4.0°C 37.9°F3.3°C 95% Calm Calm 1.0 mph1.6 kmh 30.52 in1033.5 mb 0.00 in0.0 mm 0.00 in0.0 mm 0.00 in0.0 mm
06:45 AM 39.2°F4.0°C 37.9°F3.3°C 95% Calm Calm 1.0 mph1.6 kmh 30.52 in1033.5 mb 0.00 in0.0 mm 0.00 in0.0 mm 0.00 in0.0 mm
06:50 AM 39.0°F3.9°C 37.8°F3.2°C 95% Calm Calm 1.0 mph1.6 kmh 30.53 in1033.9 mb 0.00 in0.0 mm 0.00 in0.0 mm 0.00 in0.0 mm
06:55 AM 39.2°F4.0°C 37.9°F3.3°C 95% Calm Calm -- 30.53 in1033.9 mb 0.00 in0.0 mm 0.00 in0.0 mm 0.00 in0.0 mm
07:00 AM 39.0°F3.9°C 37.8°F3.2°C 95% Calm Calm 1.0 mph1.6 kmh 30.53 in1033.9 mb 0.00 in0.0 mm 0.00 in0.0 mm 0.00 in0.0 mm
07:05 AM 39.2°F4.0°C 37.9°F3.3°C 95% Calm Calm 1.0 mph1.6 kmh 30.53 in1033.9 mb 0.00 in0.0 mm 0.00 in0.0 mm 0.00 in0.0 mm
07:10 AM 39.2°F4.0°C 37.9°F3.3°C 95% Calm Calm 1.0 mph1.6 kmh 30.54 in1034.2 mb 0.00 in0.0 mm 0.00 in0.0 mm 0.00 in0.0 mm
07:15 AM 39.2°F4.0°C 37.9°F3.3°C 95% Calm Calm 1.0 mph1.6 kmh 30.54 in1034.2 mb 0.00 in0.0 mm 0.00 in0.0 mm 0.00 in0.0 mm
07:20 AM 39.2°F4.0°C 37.9°F3.3°C 95% Calm Calm -- 30.54 in1034.2 mb 0.00 in0.0 mm 0.00 in0.0 mm 0.00 in0.0 mm
07:25 AM 39.4°F4.1°C 37.9°F3.3°C 95% Calm Calm 1.0 mph1.6 kmh 30.54 in1034.2 mb 0.00 in0.0 mm 0.00 in0.0 mm 0.00 in0.0 mm
07:30 AM 39.2°F4.0°C 37.9°F3.3°C 95% Calm Calm 1.0 mph1.6 kmh 30.54 in1034.2 mb 0.00 in0.0 mm 0.00 in0.0 mm 0.00 in0.0 mm
07:35 AM 39.4°F4.1°C 37.9°F3.3°C 95% Calm Calm 1.0 mph1.6 kmh 30.55 in1034.5 mb 0.00 in0.0 mm 0.00 in0.0 mm 0.00 in0.0 mm
07:40 AM 39.2°F4.0°C 37.9°F3.3°C 95% Calm Calm 1.0 mph1.6 kmh 30.54 in1034.2 mb 0.00 in0.0 mm 0.00 in0.0 mm 0.00 in0.0 mm
07:45 AM 39.4°F4.1°C 37.9°F3.3°C 95% Calm Calm 1.0 mph1.6 kmh 30.55 in1034.5 mb 0.00 in0.0 mm 0.00 in0.0 mm 0.00 in0.0 mm
07:50 AM 39.2°F4.0°C 37.9°F3.3°C 95% Calm Calm 2.0 mph3.2 kmh 30.55 in1034.5 mb 0.00 in0.0 mm 0.00 in0.0 mm 0.00 in0.0 mm
07:55 AM 39.4°F4.1°C 37.9°F3.3°C 95% Calm Calm 2.0 mph3.2 kmh 30.55 in1034.5 mb 0.00 in0.0 mm 0.00 in0.0 mm 0.00 in0.0 mm
08:00 AM 39.6°F4.2°C 38.1°F3.4°C 95% Calm Calm 1.0 mph1.6 kmh 30.54 in1034.2 mb 0.00 in0.0 mm 0.00 in0.0 mm 0.00 in0.0 mm
08:05 AM 39.7°F4.3°C 38.3°F3.5°C 95% Calm Calm 3.0 mph4.8 kmh 30.55 in1034.5 mb 0.00 in0.0 mm 0.00 in0.0 mm 0.00 in0.0 mm
08:10 AM 39.7°F4.3°C 38.5°F3.6°C 95% Calm Calm 4.0 mph6.4 kmh 30.55 in1034.5 mb 0.00 in0.0 mm 0.00 in0.0 mm 0.00 in0.0 mm
08:15 AM 39.9°F4.4°C 38.7°F3.7°C 95% Calm Calm 4.0 mph6.4 kmh 30.55 in1034.5 mb 0.00 in0.0 mm 0.00 in0.0 mm 0.00 in0.0 mm
08:20 AM 39.9°F4.4°C 38.7°F3.7°C 95% Calm Calm 2.0 mph3.2 kmh 30.55 in1034.5 mb 0.00 in0.0 mm 0.00 in0.0 mm 0.00 in0.0 mm
08:25 AM 40.1°F4.5°C 38.8°F3.8°C 95% Calm Calm 2.0 mph3.2 kmh 30.55 in1034.5 mb 0.00 in0.0 mm 0.00 in0.0 mm 0.00 in0.0 mm
08:30 AM 40.3°F4.6°C 38.8°F3.8°C 95% Calm Calm 2.0 mph3.2 kmh 30.55 in1034.5 mb 0.00 in0.0 mm 0.00 in0.0 mm 0.00 in0.0 mm
08:35 AM 40.3°F4.6°C 39.0°F3.9°C 95% Calm Calm 4.0 mph6.4 kmh 30.55 in1034.5 mb 0.00 in0.0 mm 0.00 in0.0 mm 0.00 in0.0 mm
08:40 AM 40.5°F4.7°C 39.0°F3.9°C 95% 1.0 mph NW1.6 kmh NW 4.0 mph6.4 kmh 30.55 in1034.5 mb 0.00 in0.0 mm 0.00 in0.0 mm 0.00 in0.0 mm
08:45 AM 40.5°F4.7°C 39.2°F4.0°C 95% Calm Calm 4.0 mph6.4 kmh 30.56 in1034.9 mb 0.00 in0.0 mm 0.00 in0.0 mm 0.00 in0.0 mm
08:50 AM 40.6°F4.8°C 39.2°F4.0°C 95% Calm Calm 4.0 mph6.4 kmh 30.55 in1034.5 mb 0.00 in0.0 mm 0.00 in0.0 mm 0.00 in0.0 mm
08:55 AM 40.6°F4.8°C 39.4°F4.1°C 95% Calm Calm 2.0 mph3.2 kmh 30.55 in1034.5 mb 0.00 in0.0 mm 0.00 in0.0 mm 0.00 in0.0 mm
09:00 AM 40.8°F4.9°C 39.6°F4.2°C 95% Calm Calm 2.0 mph3.2 kmh 30.55 in1034.5 mb 0.00 in0.0 mm 0.00 in0.0 mm 0.00 in0.0 mm
09:05 AM 40.8°F4.9°C 39.6°F4.2°C 95% Calm Calm 4.0 mph6.4 kmh 30.55 in1034.5 mb 0.00 in0.0 mm 0.00 in0.0 mm 0.00 in0.0 mm
09:10 AM 40.8°F4.9°C 39.6°F4.2°C 95% Calm Calm 6.0 mph9.7 kmh 30.55 in1034.5 mb 0.00 in0.0 mm 0.00 in0.0 mm 0.00 in0.0 mm
09:15 AM 41.2°F5.1°C 39.7°F4.3°C 95% Calm Calm 6.0 mph9.7 kmh 30.55 in1034.5 mb 0.00 in0.0 mm 0.00 in0.0 mm 0.00 in0.0 mm
09:20 AM 41.2°F5.1°C 39.7°F4.3°C 95% 1.0 mph NW1.6 kmh NW 4.0 mph6.4 kmh 30.55 in1034.5 mb 0.00 in0.0 mm 0.00 in0.0 mm 0.00 in0.0 mm
09:25 AM 41.2°F5.1°C 39.6°F4.2°C 94% 1.0 mph NW1.6 kmh NW 5.0 mph8.0 kmh 30.55 in1034.5 mb 0.00 in0.0 mm 0.00 in0.0 mm 0.00 in0.0 mm
09:30 AM 41.2°F5.1°C 39.6°F4.2°C 94% 1.0 mph NW1.6 kmh NW 5.0 mph8.0 kmh 30.55 in1034.5 mb 0.00 in0.0 mm 0.00 in0.0 mm 0.00 in0.0 mm
09:35 AM 41.2°F5.1°C 39.6°F4.2°C 94% 1.0 mph NW1.6 kmh NW 5.0 mph8.0 kmh 30.55 in1034.5 mb 0.00 in0.0 mm 0.00 in0.0 mm 0.00 in0.0 mm
09:40 AM 41.2°F5.1°C 39.6°F4.2°C 94% 1.0 mph NW1.6 kmh NW 5.0 mph8.0 kmh 30.55 in1034.5 mb 0.00 in0.0 mm 0.00 in0.0 mm 0.00 in0.0 mm
09:45 AM 41.4°F5.2°C 39.7°F4.3°C 94% Calm Calm 3.0 mph4.8 kmh 30.55 in1034.5 mb 0.00 in0.0 mm 0.00 in0.0 mm 0.00 in0.0 mm
09:50 AM 41.4°F5.2°C 39.7°F4.3°C 94% Calm Calm 6.0 mph9.7 kmh 30.55 in1034.5 mb 0.00 in0.0 mm 0.00 in0.0 mm 0.00 in0.0 mm
09:55 AM 41.4°F5.2°C 39.7°F4.3°C 94% Calm Calm 6.0 mph9.7 kmh 30.55 in1034.5 mb 0.00 in0.0 mm 0.00 in0.0 mm 0.00 in0.0 mm
10:00 AM 41.4°F5.2°C 39.7°F4.3°C 94% Calm Calm 3.0 mph4.8 kmh 30.55 in1034.5 mb 0.00 in0.0 mm 0.00 in0.0 mm 0.00 in0.0 mm
10:05 AM 41.5°F5.3°C 39.9°F4.4°C 94% Calm Calm 2.0 mph3.2 kmh 30.56 in1034.9 mb 0.00 in0.0 mm 0.00 in0.0 mm 0.00 in0.0 mm
10:10 AM 41.5°F5.3°C 39.9°F4.4°C 94% Calm Calm 2.0 mph3.2 kmh 30.56 in1034.9 mb 0.00 in0.0 mm 0.00 in0.0 mm 0.00 in0.0 mm
10:15 AM 41.5°F5.3°C 39.9°F4.4°C 94% Calm Calm 2.0 mph3.2 kmh 30.57 in1035.2 mb 0.00 in0.0 mm 0.00 in0.0 mm 0.00 in0.0 mm
10:20 AM 41.5°F5.3°C 39.9°F4.4°C 94% Calm Calm 2.0 mph3.2 kmh 30.57 in1035.2 mb 0.00 in0.0 mm 0.00 in0.0 mm 0.00 in0.0 mm
10:25 AM 41.5°F5.3°C 39.9°F4.4°C 94% Calm Calm 2.0 mph3.2 kmh 30.57 in1035.2 mb 0.00 in0.0 mm 0.00 in0.0 mm 0.00 in0.0 mm
10:30 AM 41.7°F5.4°C 40.1°F4.5°C 94% Calm Calm 1.0 mph1.6 kmh 30.57 in1035.2 mb 0.00 in0.0 mm 0.00 in0.0 mm 0.00 in0.0 mm
10:35 AM 41.7°F5.4°C 40.1°F4.5°C 94% Calm Calm 2.0 mph3.2 kmh 30.57 in1035.2 mb 0.00 in0.0 mm 0.00 in0.0 mm 0.00 in0.0 mm
10:40 AM 41.7°F5.4°C 40.1°F4.5°C 94% 1.0 mph NW1.6 kmh NW 5.0 mph8.0 kmh 30.57 in1035.2 mb 0.00 in0.0 mm 0.00 in0.0 mm 0.00 in0.0 mm
10:45 AM 41.7°F5.4°C 40.3°F4.6°C 94% 1.0 mph NW1.6 kmh NW 5.0 mph8.0 kmh 30.57 in1035.2 mb 0.00 in0.0 mm 0.00 in0.0 mm 0.00 in0.0 mm
10:50 AM 41.7°F5.4°C 40.3°F4.6°C 94% 1.0 mph NW1.6 kmh NW 3.0 mph4.8 kmh 30.57 in1035.2 mb 0.00 in0.0 mm 0.00 in0.0 mm 0.00 in0.0 mm
10:55 AM 41.7°F5.4°C 40.3°F4.6°C 94% 1.0 mph NW1.6 kmh NW 3.0 mph4.8 kmh 30.57 in1035.2 mb 0.00 in0.0 mm 0.00 in0.0 mm 0.00 in0.0 mm
11:00 AM 42.1°F5.6°C 40.5°F4.7°C 94% Calm Calm 3.0 mph4.8 kmh 30.57 in1035.2 mb 0.00 in0.0 mm 0.00 in0.0 mm 0.00 in0.0 mm
11:05 AM 42.1°F5.6°C 40.5°F4.7°C 94% Calm Calm 2.0 mph3.2 kmh 30.56 in1034.9 mb 0.00 in0.0 mm 0.00 in0.0 mm 0.00 in0.0 mm
11:10 AM 42.3°F5.7°C 40.6°F4.8°C 94% Calm Calm 2.0 mph3.2 kmh 30.56 in1034.9 mb 0.00 in0.0 mm 0.00 in0.0 mm 0.00 in0.0 mm
11:15 AM 42.3°F5.7°C 40.6°F4.8°C 94% Calm Calm 2.0 mph3.2 kmh 30.56 in1034.9 mb 0.00 in0.0 mm 0.00 in0.0 mm 0.00 in0.0 mm
11:20 AM 42.3°F5.7°C 40.6°F4.8°C 94% Calm Calm 2.0 mph3.2 kmh 30.56 in1034.9 mb 0.00 in0.0 mm 0.00 in0.0 mm 0.00 in0.0 mm
11:25 AM 42.3°F5.7°C 40.6°F4.8°C 94% Calm Calm 2.0 mph3.2 kmh 30.55 in1034.5 mb 0.00 in0.0 mm 0.00 in0.0 mm 0.00 in0.0 mm
11:30 AM 42.3°F5.7°C 40.6°F4.8°C 94% Calm Calm 2.0 mph3.2 kmh 30.55 in1034.5 mb 0.00 in0.0 mm 0.00 in0.0 mm 0.00 in0.0 mm
11:35 AM 42.3°F5.7°C 40.6°F4.8°C 94% Calm Calm 3.0 mph4.8 kmh 30.55 in1034.5 mb 0.00 in0.0 mm 0.00 in0.0 mm 0.00 in0.0 mm
11:40 AM 42.1°F5.6°C 40.5°F4.7°C 94% Calm Calm 3.0 mph4.8 kmh 30.55 in1034.5 mb 0.00 in0.0 mm 0.00 in0.0 mm 0.00 in0.0 mm
11:45 AM 42.1°F5.6°C 40.5°F4.7°C 94% Calm Calm 3.0 mph4.8 kmh 30.56 in1034.9 mb 0.00 in0.0 mm 0.00 in0.0 mm 0.00 in0.0 mm
11:50 AM 42.1°F5.6°C 40.5°F4.7°C 94% Calm Calm 3.0 mph4.8 kmh 30.56 in1034.9 mb 0.00 in0.0 mm 0.00 in0.0 mm 0.00 in0.0 mm
11:55 AM 42.1°F5.6°C 40.5°F4.7°C 94% Calm Calm 3.0 mph4.8 kmh 30.56 in1034.9 mb 0.00 in0.0 mm 0.00 in0.0 mm 0.00 in0.0 mm
12:00 PM 42.3°F5.7°C 40.8°F4.9°C 95% Calm Calm 2.0 mph3.2 kmh 30.56 in1034.9 mb 0.00 in0.0 mm 0.00 in0.0 mm 0.00 in0.0 mm
12:05 PM 42.3°F5.7°C 41.0°F5.0°C 95% Calm Calm 2.0 mph3.2 kmh 30.56 in1034.9 mb 0.00 in0.0 mm 0.00 in0.0 mm 0.00 in0.0 mm
12:10 PM 42.4°F5.8°C 41.0°F5.0°C 95% Calm Calm 4.0 mph6.4 kmh 30.55 in1034.5 mb 0.00 in0.0 mm 0.00 in0.0 mm 0.00 in0.0 mm
12:15 PM 42.3°F5.7°C 41.0°F5.0°C 95% Calm Calm 4.0 mph6.4 kmh 30.56 in1034.9 mb 0.00 in0.0 mm 0.00 in0.0 mm 0.00 in0.0 mm
12:20 PM 42.3°F5.7°C 40.8°F4.9°C 95% Calm Calm 4.0 mph6.4 kmh 30.56 in1034.9 mb 0.00 in0.0 mm 0.00 in0.0 mm 0.00 in0.0 mm
12:25 PM 42.3°F5.7°C 40.8°F4.9°C 95% 1.0 mph NW1.6 kmh NW 4.0 mph6.4 kmh 30.56 in1034.9 mb 0.00 in0.0 mm 0.00 in0.0 mm 0.00 in0.0 mm
12:30 PM 42.3°F5.7°C 40.8°F4.9°C 95% 1.0 mph NW1.6 kmh NW 3.0 mph4.8 kmh 30.56 in1034.9 mb 0.00 in0.0 mm 0.00 in0.0 mm 0.00 in0.0 mm
12:35 PM 42.3°F5.7°C 41.0°F5.0°C 95% Calm Calm 1.0 mph1.6 kmh 30.55 in1034.5 mb 0.00 in0.0 mm 0.00 in0.0 mm 0.00 in0.0 mm
12:40 PM 42.3°F5.7°C 41.0°F5.0°C 95% Calm Calm 4.0 mph6.4 kmh 30.56 in1034.9 mb 0.00 in0.0 mm 0.00 in0.0 mm 0.00 in0.0 mm
12:45 PM 42.3°F5.7°C 41.0°F5.0°C 95% 1.0 mph NW1.6 kmh NW 4.0 mph6.4 kmh 30.56 in1034.9 mb 0.00 in0.0 mm 0.00 in0.0 mm 0.00 in0.0 mm
12:50 PM 42.4°F5.8°C 41.0°F5.0°C 95% 1.0 mph NW1.6 kmh NW 3.0 mph4.8 kmh 30.56 in1034.9 mb 0.00 in0.0 mm 0.00 in0.0 mm 0.00 in0.0 mm
12:55 PM 42.4°F5.8°C 41.2°F5.1°C 95% Calm Calm 3.0 mph4.8 kmh 30.56 in1034.9 mb 0.00 in0.0 mm 0.00 in0.0 mm 0.00 in0.0 mm
01:00 PM 42.6°F5.9°C 41.2°F5.1°C 95% Calm Calm 3.0 mph4.8 kmh 30.55 in1034.5 mb 0.00 in0.0 mm 0.00 in0.0 mm 0.00 in0.0 mm
01:05 PM 43.0°F6.1°C 41.5°F5.3°C 95% Calm Calm 3.0 mph4.8 kmh 30.55 in1034.5 mb 0.00 in0.0 mm 0.00 in0.0 mm 0.00 in0.0 mm
01:10 PM 43.0°F6.1°C 41.7°F5.4°C 95% Calm Calm 4.0 mph6.4 kmh 30.55 in1034.5 mb 0.00 in0.0 mm 0.00 in0.0 mm 0.00 in0.0 mm
01:15 PM 43.2°F6.2°C 41.5°F5.3°C 94% Calm Calm 4.0 mph6.4 kmh 30.55 in1034.5 mb 0.00 in0.0 mm 0.00 in0.0 mm 0.00 in0.0 mm
01:20 PM 43.2°F6.2°C 41.5°F5.3°C 94% Calm Calm 3.0 mph4.8 kmh 30.55 in1034.5 mb 0.00 in0.0 mm 0.00 in0.0 mm 0.00 in0.0 mm
01:25 PM 43.2°F6.2°C 41.5°F5.3°C 94% Calm Calm 4.0 mph6.4 kmh 30.55 in1034.5 mb 0.00 in0.0 mm 0.00 in0.0 mm 0.00 in0.0 mm
01:30 PM 43.2°F6.2°C 41.4°F5.2°C 93% Calm Calm 5.0 mph8.0 kmh 30.55 in1034.5 mb 0.00 in0.0 mm 0.00 in0.0 mm 0.00 in0.0 mm
01:35 PM 43.0°F6.1°C 41.2°F5.1°C 93% 1.0 mph WSW1.6 kmh WSW 5.0 mph8.0 kmh 30.55 in1034.5 mb 0.00 in0.0 mm 0.00 in0.0 mm 0.00 in0.0 mm
01:40 PM 43.0°F6.1°C 41.2°F5.1°C 93% 1.0 mph WSW1.6 kmh WSW 5.0 mph8.0 kmh 30.55 in1034.5 mb 0.00 in0.0 mm 0.00 in0.0 mm 0.00 in0.0 mm
01:45 PM 43.0°F6.1°C 41.2°F5.1°C 93% 1.0 mph WSW1.6 kmh WSW 5.0 mph8.0 kmh 30.55 in1034.5 mb 0.00 in0.0 mm 0.00 in0.0 mm 0.00 in0.0 mm
01:50 PM 43.0°F6.1°C 41.2°F5.1°C 93% Calm Calm 4.0 mph6.4 kmh 30.55 in1034.5 mb 0.00 in0.0 mm 0.00 in0.0 mm 0.00 in0.0 mm
01:55 PM 43.0°F6.1°C 41.0°F5.0°C 93% 1.0 mph WSW1.6 kmh WSW 4.0 mph6.4 kmh 30.55 in1034.5 mb 0.00 in0.0 mm 0.00 in0.0 mm 0.00 in0.0 mm
02:00 PM 42.8°F6.0°C 41.0°F5.0°C 93% 1.0 mph WSW1.6 kmh WSW 5.0 mph8.0 kmh 30.55 in1034.5 mb 0.00 in0.0 mm 0.00 in0.0 mm 0.00 in0.0 mm
02:05 PM 42.8°F6.0°C 41.0°F5.0°C 93% 1.0 mph WSW1.6 kmh WSW 5.0 mph8.0 kmh 30.55 in1034.5 mb 0.00 in0.0 mm 0.00 in0.0 mm 0.00 in0.0 mm
02:10 PM 42.8°F6.0°C 41.0°F5.0°C 93% 1.0 mph WSW1.6 kmh WSW 4.0 mph6.4 kmh 30.55 in1034.5 mb 0.00 in0.0 mm 0.00 in0.0 mm 0.00 in0.0 mm
02:15 PM 42.8°F6.0°C 41.0°F5.0°C 93% 1.0 mph WSW1.6 kmh WSW 4.0 mph6.4 kmh 30.55 in1034.5 mb 0.00 in0.0 mm 0.00 in0.0 mm 0.00 in0.0 mm
02:20 PM 42.8°F6.0°C 41.0°F5.0°C 93% 1.0 mph W1.6 kmh W 4.0 mph6.4 kmh 30.55 in1034.5 mb 0.00 in0.0 mm 0.00 in0.0 mm 0.00 in0.0 mm
02:25 PM 42.6°F5.9°C 40.8°F4.9°C 93% 1.0 mph WSW1.6 kmh WSW 6.0 mph9.7 kmh 30.55 in1034.5 mb 0.00 in0.0 mm 0.00 in0.0 mm 0.00 in0.0 mm
02:30 PM 42.6°F5.9°C 40.8°F4.9°C 93% 1.0 mph WSW1.6 kmh WSW 6.0 mph9.7 kmh 30.55 in1034.5 mb 0.00 in0.0 mm 0.00 in0.0 mm 0.00 in0.0 mm
02:35 PM 42.6°F5.9°C 40.8°F4.9°C 93% Calm Calm 4.0 mph6.4 kmh 30.55 in1034.5 mb 0.00 in0.0 mm 0.00 in0.0 mm 0.00 in0.0 mm
02:40 PM 42.6°F5.9°C 40.6°F4.8°C 93% Calm Calm 3.0 mph4.8 kmh 30.55 in1034.5 mb 0.00 in0.0 mm 0.00 in0.0 mm 0.00 in0.0 mm
02:45 PM 42.6°F5.9°C 40.6°F4.8°C 93% Calm Calm 2.0 mph3.2 kmh 30.55 in1034.5 mb 0.00 in0.0 mm 0.00 in0.0 mm 0.00 in0.0 mm
02:50 PM 42.6°F5.9°C 40.8°F4.9°C 93% Calm Calm 3.0 mph4.8 kmh 30.55 in1034.5 mb 0.00 in0.0 mm 0.00 in0.0 mm 0.00 in0.0 mm
02:55 PM 42.6°F5.9°C 40.8°F4.9°C 93% Calm Calm 3.0 mph4.8 kmh 30.55 in1034.5 mb 0.00 in0.0 mm 0.00 in0.0 mm 0.00 in0.0 mm
03:00 PM 43.0°F6.1°C 41.0°F5.0°C 93% Calm Calm 3.0 mph4.8 kmh 30.55 in1034.5 mb 0.00 in0.0 mm 0.00 in0.0 mm 0.00 in0.0 mm
03:05 PM 43.0°F6.1°C 41.0°F5.0°C 93% Calm Calm 2.0 mph3.2 kmh 30.55 in1034.5 mb 0.00 in0.0 mm 0.00 in0.0 mm 0.00 in0.0 mm
03:10 PM 43.0°F6.1°C 41.2°F5.1°C 93% Calm Calm 2.0 mph3.2 kmh 30.55 in1034.5 mb 0.00 in0.0 mm 0.00 in0.0 mm 0.00 in0.0 mm
03:15 PM 43.0°F6.1°C 41.2°F5.1°C 93% Calm Calm 3.0 mph4.8 kmh 30.55 in1034.5 mb 0.00 in0.0 mm 0.00 in0.0 mm 0.00 in0.0 mm
03:20 PM 43.0°F6.1°C 41.0°F5.0°C 93% Calm Calm 3.0 mph4.8 kmh 30.55 in1034.5 mb 0.00 in0.0 mm 0.00 in0.0 mm 0.00 in0.0 mm
03:25 PM 43.0°F6.1°C 41.0°F5.0°C 93% Calm Calm 3.0 mph4.8 kmh 30.54 in1034.2 mb 0.00 in0.0 mm 0.00 in0.0 mm 0.00 in0.0 mm
03:30 PM 43.0°F6.1°C 41.0°F5.0°C 93% Calm Calm 2.0 mph3.2 kmh 30.54 in1034.2 mb 0.00 in0.0 mm 0.00 in0.0 mm 0.00 in0.0 mm
03:35 PM 43.0°F6.1°C 41.0°F5.0°C 93% Calm Calm 4.0 mph6.4 kmh 30.54 in1034.2 mb 0.00 in0.0 mm 0.00 in0.0 mm 0.00 in0.0 mm
03:40 PM 42.8°F6.0°C 41.0°F5.0°C 93% Calm Calm 4.0 mph6.4 kmh 30.54 in1034.2 mb 0.00 in0.0 mm 0.00 in0.0 mm 0.00 in0.0 mm
03:45 PM 42.8°F6.0°C 41.0°F5.0°C 93% Calm Calm 3.0 mph4.8 kmh 30.55 in1034.5 mb 0.00 in0.0 mm 0.00 in0.0 mm 0.00 in0.0 mm
03:50 PM 42.8°F6.0°C 41.2°F5.1°C 94% Calm Calm 2.0 mph3.2 kmh 30.55 in1034.5 mb 0.00 in0.0 mm 0.00 in0.0 mm 0.00 in0.0 mm
03:55 PM 42.6°F5.9°C 41.2°F5.1°C 94% Calm Calm 2.0 mph3.2 kmh 30.54 in1034.2 mb 0.00 in0.0 mm 0.00 in0.0 mm 0.00 in0.0 mm
04:00 PM 42.6°F5.9°C 41.0°F5.0°C 94% Calm Calm 2.0 mph3.2 kmh 30.55 in1034.5 mb 0.00 in0.0 mm 0.00 in0.0 mm 0.00 in0.0 mm
04:05 PM 42.6°F5.9°C 41.0°F5.0°C 94% Calm Calm 4.0 mph6.4 kmh 30.54 in1034.2 mb 0.00 in0.0 mm 0.00 in0.0 mm 0.00 in0.0 mm
04:10 PM 42.4°F5.8°C 40.8°F4.9°C 94% Calm Calm 4.0 mph6.4 kmh 30.54 in1034.2 mb 0.00 in0.0 mm 0.00 in0.0 mm 0.00 in0.0 mm
04:15 PM 42.4°F5.8°C 40.8°F4.9°C 94% Calm Calm 2.0 mph3.2 kmh 30.54 in1034.2 mb 0.00 in0.0 mm 0.00 in0.0 mm 0.00 in0.0 mm
04:20 PM 42.4°F5.8°C 40.8°F4.9°C 94% Calm Calm 2.0 mph3.2 kmh 30.54 in1034.2 mb 0.00 in0.0 mm 0.00 in0.0 mm 0.00 in0.0 mm
04:25 PM 42.4°F5.8°C 40.8°F4.9°C 94% Calm Calm 1.0 mph1.6 kmh 30.54 in1034.2 mb 0.00 in0.0 mm 0.00 in0.0 mm 0.00 in0.0 mm
04:30 PM 42.3°F5.7°C 41.0°F5.0°C 95% Calm Calm 1.0 mph1.6 kmh 30.54 in1034.2 mb 0.00 in0.0 mm 0.00 in0.0 mm 0.00 in0.0 mm
04:35 PM 42.3°F5.7°C 41.0°F5.0°C 95% Calm Calm 1.0 mph1.6 kmh 30.54 in1034.2 mb 0.00 in0.0 mm 0.00 in0.0 mm 0.00 in0.0 mm
04:40 PM 42.3°F5.7°C 40.8°F4.9°C 95% Calm Calm 1.0 mph1.6 kmh 30.54 in1034.2 mb 0.00 in0.0 mm 0.00 in0.0 mm 0.00 in0.0 mm
04:45 PM 42.3°F5.7°C 40.8°F4.9°C 95% Calm Calm 1.0 mph1.6 kmh 30.54 in1034.2 mb 0.00 in0.0 mm 0.00 in0.0 mm 0.00 in0.0 mm
04:50 PM 42.3°F5.7°C 40.8°F4.9°C 95% Calm Calm 1.0 mph1.6 kmh 30.54 in1034.2 mb 0.00 in0.0 mm 0.00 in0.0 mm 0.00 in0.0 mm
04:55 PM 42.1°F5.6°C 40.8°F4.9°C 95% Calm Calm 1.0 mph1.6 kmh 30.54 in1034.2 mb 0.00 in0.0 mm 0.00 in0.0 mm 0.00 in0.0 mm
05:00 PM 42.1°F5.6°C 40.8°F4.9°C 95% Calm Calm 2.0 mph3.2 kmh 30.54 in1034.2 mb 0.00 in0.0 mm 0.00 in0.0 mm 0.00 in0.0 mm
05:05 PM 42.1°F5.6°C 40.6°F4.8°C 95% Calm Calm 2.0 mph3.2 kmh 30.54 in1034.2 mb 0.01 in0.3 mm 0.12 in3.0 mm 0.01 in0.3 mm
05:10 PM 42.1°F5.6°C 40.6°F4.8°C 95% Calm Calm 2.0 mph3.2 kmh 30.54 in1034.2 mb 0.01 in0.3 mm 0.00 in0.0 mm 0.01 in0.3 mm
05:15 PM 42.1°F5.6°C 40.6°F4.8°C 95% Calm Calm 2.0 mph3.2 kmh 30.54 in1034.2 mb 0.01 in0.3 mm 0.00 in0.0 mm 0.01 in0.3 mm
05:20 PM 42.1°F5.6°C 40.6°F4.8°C 95% Calm Calm 2.0 mph3.2 kmh 30.54 in1034.2 mb 0.01 in0.3 mm 0.00 in0.0 mm 0.01 in0.3 mm
05:25 PM 42.1°F5.6°C 40.6°F4.8°C 95% Calm Calm 1.0 mph1.6 kmh 30.54 in1034.2 mb 0.01 in0.3 mm 0.00 in0.0 mm 0.01 in0.3 mm
05:30 PM 41.9°F5.5°C 40.6°F4.8°C 95% Calm Calm 1.0 mph1.6 kmh 30.54 in1034.2 mb 0.01 in0.3 mm 0.00 in0.0 mm 0.01 in0.3 mm
05:35 PM 41.9°F5.5°C 40.6°F4.8°C 95% Calm Calm -- 30.54 in1034.2 mb 0.01 in0.3 mm 0.00 in0.0 mm 0.01 in0.3 mm
05:40 PM 41.9°F5.5°C 40.8°F4.9°C 96% Calm Calm -- 30.54 in1034.2 mb 0.01 in0.3 mm 0.00 in0.0 mm 0.01 in0.3 mm
05:45 PM 41.7°F5.4°C 40.8°F4.9°C 96% Calm Calm -- 30.54 in1034.2 mb 0.01 in0.3 mm 0.00 in0.0 mm 0.01 in0.3 mm
05:50 PM 41.7°F5.4°C 40.8°F4.9°C 96% Calm Calm 1.0 mph1.6 kmh 30.54 in1034.2 mb 0.01 in0.3 mm 0.00 in0.0 mm 0.01 in0.3 mm
05:55 PM 41.9°F5.5°C 40.8°F4.9°C 96% Calm Calm 1.0 mph1.6 kmh 30.54 in1034.2 mb 0.01 in0.3 mm 0.00 in0.0 mm 0.01 in0.3 mm
06:00 PM 41.9°F5.5°C 40.8°F4.9°C 96% Calm Calm 1.0 mph1.6 kmh 30.54 in1034.2 mb 0.01 in0.3 mm 0.00 in0.0 mm 0.01 in0.3 mm
06:05 PM 41.7°F5.4°C 40.6°F4.8°C 96% Calm Calm 1.0 mph1.6 kmh 30.54 in1034.2 mb 0.00 in0.0 mm 0.00 in0.0 mm 0.01 in0.3 mm
06:10 PM 41.5°F5.3°C 40.5°F4.7°C 96% Calm Calm -- 30.54 in1034.2 mb 0.00 in0.0 mm 0.00 in0.0 mm 0.01 in0.3 mm
06:15 PM 41.5°F5.3°C 40.5°F4.7°C 96% Calm Calm -- 30.54 in1034.2 mb 0.00 in0.0 mm 0.00 in0.0 mm 0.01 in0.3 mm
06:20 PM 41.5°F5.3°C 40.5°F4.7°C 96% Calm Calm 1.0 mph1.6 kmh 30.54 in1034.2 mb 0.00 in0.0 mm 0.00 in0.0 mm 0.01 in0.3 mm
06:25 PM 41.5°F5.3°C 40.5°F4.7°C 96% Calm Calm 1.0 mph1.6 kmh 30.54 in1034.2 mb 0.00 in0.0 mm 0.00 in0.0 mm 0.01 in0.3 mm
06:30 PM 41.5°F5.3°C 40.5°F4.7°C 96% Calm Calm 1.0 mph1.6 kmh 30.54 in1034.2 mb 0.00 in0.0 mm 0.00 in0.0 mm 0.01 in0.3 mm
06:35 PM 41.4°F5.2°C 40.3°F4.6°C 96% Calm Calm 1.0 mph1.6 kmh 30.54 in1034.2 mb 0.00 in0.0 mm 0.00 in0.0 mm 0.01 in0.3 mm
06:40 PM 41.4°F5.2°C 40.3°F4.6°C 96% Calm Calm -- 30.54 in1034.2 mb 0.00 in0.0 mm 0.00 in0.0 mm 0.01 in0.3 mm
06:45 PM 41.4°F5.2°C 40.3°F4.6°C 96% Calm Calm 1.0 mph1.6 kmh 30.54 in1034.2 mb 0.00 in0.0 mm 0.00 in0.0 mm 0.01 in0.3 mm
06:50 PM 41.5°F5.3°C 40.5°F4.7°C 96% Calm Calm 1.0 mph1.6 kmh 30.55 in1034.5 mb 0.00 in0.0 mm 0.00 in0.0 mm 0.01 in0.3 mm
06:55 PM 41.5°F5.3°C 40.5°F4.7°C 96% Calm Calm 1.0 mph1.6 kmh 30.54 in1034.2 mb 0.00 in0.0 mm 0.00 in0.0 mm 0.01 in0.3 mm
07:00 PM 41.5°F5.3°C 40.5°F4.7°C 96% Calm Calm 2.0 mph3.2 kmh 30.54 in1034.2 mb 0.00 in0.0 mm 0.00 in0.0 mm 0.01 in0.3 mm
07:05 PM 41.5°F5.3°C 40.5°F4.7°C 96% Calm Calm 2.0 mph3.2 kmh 30.54 in1034.2 mb 0.00 in0.0 mm 0.00 in0.0 mm 0.01 in0.3 mm
07:10 PM 41.5°F5.3°C 40.5°F4.7°C 96% Calm Calm 1.0 mph1.6 kmh 30.54 in1034.2 mb 0.00 in0.0 mm 0.00 in0.0 mm 0.01 in0.3 mm
07:15 PM 41.5°F5.3°C 40.5°F4.7°C 96% Calm Calm 1.0 mph1.6 kmh 30.55 in1034.5 mb 0.00 in0.0 mm 0.00 in0.0 mm 0.01 in0.3 mm
07:20 PM 41.5°F5.3°C 40.5°F4.7°C 96% Calm Calm 2.0 mph3.2 kmh 30.54 in1034.2 mb 0.00 in0.0 mm 0.00 in0.0 mm 0.01 in0.3 mm
07:25 PM 41.5°F5.3°C 40.5°F4.7°C 96% Calm Calm 2.0 mph3.2 kmh 30.54 in1034.2 mb 0.00 in0.0 mm 0.00 in0.0 mm 0.01 in0.3 mm
07:30 PM 41.5°F5.3°C 40.5°F4.7°C 96% Calm Calm 1.0 mph1.6 kmh 30.54 in1034.2 mb 0.01 in0.3 mm 0.12 in3.0 mm 0.02 in0.5 mm
07:35 PM 41.5°F5.3°C 40.5°F4.7°C 96% Calm Calm 2.0 mph3.2 kmh 30.54 in1034.2 mb 0.01 in0.3 mm 0.00 in0.0 mm 0.02 in0.5 mm
07:40 PM 41.5°F5.3°C 40.5°F4.7°C 96% Calm Calm 2.0 mph3.2 kmh 30.55 in1034.5 mb 0.01 in0.3 mm 0.00 in0.0 mm 0.02 in0.5 mm
07:45 PM 41.5°F5.3°C 40.5°F4.7°C 96% Calm Calm 2.0 mph3.2 kmh 30.54 in1034.2 mb 0.01 in0.3 mm 0.00 in0.0 mm 0.02 in0.5 mm
07:50 PM 41.5°F5.3°C 40.5°F4.7°C 96% Calm Calm 2.0 mph3.2 kmh 30.54 in1034.2 mb 0.01 in0.3 mm 0.00 in0.0 mm 0.02 in0.5 mm
07:55 PM 41.5°F5.3°C 40.5°F4.7°C 96% Calm Calm 2.0 mph3.2 kmh 30.54 in1034.2 mb 0.01 in0.3 mm 0.00 in0.0 mm 0.02 in0.5 mm
08:00 PM 41.5°F5.3°C 40.6°F4.8°C 97% Calm Calm 2.0 mph3.2 kmh 30.54 in1034.2 mb 0.01 in0.3 mm 0.00 in0.0 mm 0.02 in0.5 mm
08:05 PM 41.5°F5.3°C 40.6°F4.8°C 97% Calm Calm 1.0 mph1.6 kmh 30.54 in1034.2 mb 0.01 in0.3 mm 0.00 in0.0 mm 0.02 in0.5 mm
08:10 PM 41.4°F5.2°C 40.6°F4.8°C 97% Calm Calm 1.0 mph1.6 kmh 30.54 in1034.2 mb 0.01 in0.3 mm 0.00 in0.0 mm 0.02 in0.5 mm
08:15 PM 41.4°F5.2°C 40.6°F4.8°C 97% Calm Calm -- 30.53 in1033.9 mb 0.01 in0.3 mm 0.00 in0.0 mm 0.02 in0.5 mm
08:20 PM 41.4°F5.2°C 40.6°F4.8°C 97% Calm Calm 1.0 mph1.6 kmh 30.53 in1033.9 mb 0.01 in0.3 mm 0.00 in0.0 mm 0.02 in0.5 mm
08:25 PM 41.4°F5.2°C 40.5°F4.7°C 97% Calm Calm 1.0 mph1.6 kmh 30.54 in1034.2 mb 0.01 in0.3 mm 0.00 in0.0 mm 0.02 in0.5 mm
08:30 PM 41.4°F5.2°C 40.5°F4.7°C 97% Calm Calm 1.0 mph1.6 kmh 30.54 in1034.2 mb 0.00 in0.0 mm 0.00 in0.0 mm 0.02 in0.5 mm
08:35 PM 41.4°F5.2°C 40.5°F4.7°C 97% Calm Calm 1.0 mph1.6 kmh 30.54 in1034.2 mb 0.00 in0.0 mm 0.00 in0.0 mm 0.02 in0.5 mm
08:40 PM 41.2°F5.1°C 40.5°F4.7°C 97% Calm Calm -- 30.54 in1034.2 mb 0.00 in0.0 mm 0.00 in0.0 mm 0.02 in0.5 mm
08:45 PM 41.2°F5.1°C 40.5°F4.7°C 97% Calm Calm 2.0 mph3.2 kmh 30.54 in1034.2 mb 0.00 in0.0 mm 0.00 in0.0 mm 0.02 in0.5 mm
08:50 PM 41.2°F5.1°C 40.5°F4.7°C 97% Calm Calm 2.0 mph3.2 kmh 30.54 in1034.2 mb 0.00 in0.0 mm 0.00 in0.0 mm 0.02 in0.5 mm
08:55 PM 41.2°F5.1°C 40.5°F4.7°C 97% Calm Calm 3.0 mph4.8 kmh 30.54 in1034.2 mb 0.00 in0.0 mm 0.00 in0.0 mm 0.02 in0.5 mm
09:00 PM 41.2°F5.1°C 40.5°F4.7°C 97% Calm Calm 3.0 mph4.8 kmh 30.54 in1034.2 mb 0.00 in0.0 mm 0.00 in0.0 mm 0.02 in0.5 mm
09:05 PM 41.2°F5.1°C 40.5°F4.7°C 97% 1.0 mph NW1.6 kmh NW 5.0 mph8.0 kmh 30.54 in1034.2 mb 0.00 in0.0 mm 0.00 in0.0 mm 0.02 in0.5 mm
09:10 PM 41.2°F5.1°C 40.5°F4.7°C 97% Calm Calm 5.0 mph8.0 kmh 30.54 in1034.2 mb 0.00 in0.0 mm 0.00 in0.0 mm 0.02 in0.5 mm
09:15 PM 41.2°F5.1°C 40.5°F4.7°C 97% 1.0 mph NW1.6 kmh NW 4.0 mph6.4 kmh 30.54 in1034.2 mb 0.00 in0.0 mm 0.00 in0.0 mm 0.02 in0.5 mm
09:20 PM 41.2°F5.1°C 40.5°F4.7°C 97% 1.0 mph NW1.6 kmh NW 4.0 mph6.4 kmh 30.54 in1034.2 mb 0.00 in0.0 mm 0.00 in0.0 mm 0.02 in0.5 mm
09:25 PM 41.2°F5.1°C 40.3°F4.6°C 97% Calm Calm 2.0 mph3.2 kmh 30.54 in1034.2 mb 0.00 in0.0 mm 0.00 in0.0 mm 0.02 in0.5 mm
09:30 PM 41.2°F5.1°C 40.5°F4.7°C 97% Calm Calm 2.0 mph3.2 kmh 30.55 in1034.5 mb 0.00 in0.0 mm 0.00 in0.0 mm 0.02 in0.5 mm
09:35 PM 41.2°F5.1°C 40.5°F4.7°C 97% Calm Calm 2.0 mph3.2 kmh 30.55 in1034.5 mb 0.00 in0.0 mm 0.00 in0.0 mm 0.02 in0.5 mm
09:40 PM 41.2°F5.1°C 40.3°F4.6°C 97% Calm Calm 1.0 mph1.6 kmh 30.55 in1034.5 mb 0.00 in0.0 mm 0.00 in0.0 mm 0.02 in0.5 mm
09:45 PM 41.2°F5.1°C 40.3°F4.6°C 97% Calm Calm -- 30.54 in1034.2 mb 0.00 in0.0 mm 0.00 in0.0 mm 0.02 in0.5 mm
09:50 PM 41.2°F5.1°C 40.5°F4.7°C 97% Calm Calm -- 30.55 in1034.5 mb 0.00 in0.0 mm 0.00 in0.0 mm 0.02 in0.5 mm
09:55 PM 41.2°F5.1°C 40.5°F4.7°C 97% Calm Calm -- 30.55 in1034.5 mb 0.00 in0.0 mm 0.00 in0.0 mm 0.02 in0.5 mm
10:00 PM 41.2°F5.1°C 40.3°F4.6°C 97% Calm Calm -- 30.54 in1034.2 mb 0.00 in0.0 mm 0.00 in0.0 mm 0.02 in0.5 mm
10:05 PM 41.2°F5.1°C 40.3°F4.6°C 97% Calm Calm -- 30.54 in1034.2 mb 0.00 in0.0 mm 0.00 in0.0 mm 0.02 in0.5 mm
10:10 PM 41.2°F5.1°C 40.3°F4.6°C 97% Calm Calm 1.0 mph1.6 kmh 30.54 in1034.2 mb 0.00 in0.0 mm 0.00 in0.0 mm 0.02 in0.5 mm
10:15 PM 41.2°F5.1°C 40.5°F4.7°C 97% Calm Calm 1.0 mph1.6 kmh 30.54 in1034.2 mb 0.00 in0.0 mm 0.00 in0.0 mm 0.02 in0.5 mm
10:20 PM 41.2°F5.1°C 40.3°F4.6°C 97% Calm Calm -- 30.54 in1034.2 mb 0.00 in0.0 mm 0.00 in0.0 mm 0.02 in0.5 mm
10:25 PM 40.8°F4.9°C 40.1°F4.5°C 97% Calm Calm -- 30.54 in1034.2 mb 0.00 in0.0 mm 0.00 in0.0 mm 0.02 in0.5 mm
10:30 PM 40.8°F4.9°C 40.1°F4.5°C 97% Calm Calm -- 30.54 in1034.2 mb 0.00 in0.0 mm 0.00 in0.0 mm 0.02 in0.5 mm
10:35 PM 40.8°F4.9°C 40.1°F4.5°C 97% Calm Calm -- 30.54 in1034.2 mb 0.00 in0.0 mm 0.00 in0.0 mm 0.02 in0.5 mm
10:40 PM 40.8°F4.9°C 40.1°F4.5°C 97% Calm Calm -- 30.54 in1034.2 mb 0.00 in0.0 mm 0.00 in0.0 mm 0.02 in0.5 mm
10:45 PM 40.8°F4.9°C 40.1°F4.5°C 97% Calm Calm -- 30.54 in1034.2 mb 0.00 in0.0 mm 0.00 in0.0 mm 0.02 in0.5 mm
10:50 PM 40.8°F4.9°C 40.1°F4.5°C 97% Calm Calm -- 30.54 in1034.2 mb 0.01 in0.3 mm 0.12 in3.0 mm 0.02 in0.5 mm
10:55 PM 40.8°F4.9°C 40.1°F4.5°C 97% Calm Calm -- 30.54 in1034.2 mb 0.01 in0.3 mm 0.00 in0.0 mm 0.02 in0.5 mm
11:00 PM 40.8°F4.9°C 40.1°F4.5°C 97% Calm Calm -- 30.54 in1034.2 mb 0.01 in0.3 mm 0.00 in0.0 mm 0.02 in0.5 mm
11:05 PM 40.6°F4.8°C 39.9°F4.4°C 97% Calm Calm 1.0 mph1.6 kmh 30.54 in1034.2 mb 0.01 in0.3 mm 0.00 in0.0 mm 0.02 in0.5 mm
11:10 PM 40.6°F4.8°C 39.9°F4.4°C 97% Calm Calm 1.0 mph1.6 kmh 30.54 in1034.2 mb 0.01 in0.3 mm 0.00 in0.0 mm 0.02 in0.5 mm
11:15 PM 40.6°F4.8°C 39.7°F4.3°C 97% Calm Calm -- 30.54 in1034.2 mb 0.01 in0.3 mm 0.00 in0.0 mm 0.02 in0.5 mm
11:20 PM 40.6°F4.8°C 39.7°F4.3°C 97% Calm Calm -- 30.54 in1034.2 mb 0.01 in0.3 mm 0.00 in0.0 mm 0.02 in0.5 mm
11:25 PM 40.6°F4.8°C 39.7°F4.3°C 97% Calm Calm 1.0 mph1.6 kmh 30.54 in1034.2 mb 0.01 in0.3 mm 0.00 in0.0 mm 0.02 in0.5 mm
11:30 PM 40.5°F4.7°C 39.7°F4.3°C 97% Calm Calm 1.0 mph1.6 kmh 30.55 in1034.5 mb 0.01 in0.3 mm 0.00 in0.0 mm 0.02 in0.5 mm
11:35 PM 40.5°F4.7°C 39.7°F4.3°C 97% Calm Calm -- 30.55 in1034.5 mb 0.01 in0.3 mm 0.00 in0.0 mm 0.02 in0.5 mm
11:40 PM 40.5°F4.7°C 39.7°F4.3°C 97% Calm Calm -- 30.54 in1034.2 mb 0.01 in0.3 mm 0.00 in0.0 mm 0.02 in0.5 mm
11:45 PM 40.6°F4.8°C 39.7°F4.3°C 97% Calm Calm -- 30.54 in1034.2 mb 0.01 in0.3 mm 0.00 in0.0 mm 0.02 in0.5 mm
11:50 PM 40.6°F4.8°C 39.7°F4.3°C 97% Calm Calm -- 30.55 in1034.5 mb 0.00 in0.0 mm 0.00 in0.0 mm 0.02 in0.5 mm
11:55 PM 40.6°F4.8°C 39.7°F4.3°C 97% Calm Calm -- 30.55 in1034.5 mb 0.00 in0.0 mm 0.00 in0.0 mm 0.02 in0.5 mm